TimeCST,TemperatureF,Dew PointF,Humidity,Sea Level PressureIn,VisibilityMPH,Wind Direction,Wind SpeedMPH,Gust SpeedMPH,PrecipitationIn,Events,Conditions,WindDirDegrees,DateUTC
12:00 AM,74,73,94,29.95,12,WNW,5.8,,,,Mostly Cloudy,300,2013-11-04 06:00:00
3:00 AM,74,72,93,29.91,12,WNW,3.5,,,,Mostly Cloudy,290,2013-11-04 09:00:00
5:00 AM,73.4,71.6,94,29.92,6.2,WNW,4.6,-,N/A,Rain,Light Rain,300,2013-11-04 11:00:00
6:00 AM,73,72,95,29.94,11,WNW,4.6,,,,Mostly Cloudy,290,2013-11-04 12:00:00
6:00 AM,73.4,71.6,94,29.92,6.2,WNW,4.6,-,N/A,Rain,Light Rain,290,2013-11-04 12:00:00
7:00 AM,73.4,71.6,94,29.95,6.2,WNW,3.5,-,N/A,,Mostly Cloudy,290,2013-11-04 13:00:00
8:00 AM,75.2,73.4,94,29.98,6.2,WNW,3.5,-,N/A,,Mostly Cloudy,290,2013-11-04 14:00:00
9:00 AM,77,72,82,29.99,16,WNW,5.8,,,,Mostly Cloudy,290,2013-11-04 15:00:00
9:00 AM,77.0,73.4,89,29.98,6.2,WNW,5.8,-,N/A,,Scattered Clouds,290,2013-11-04 15:00:00
9:30 AM,77.0,73.4,89,29.98,6.2,WNW,5.8,-,N/A,,Scattered Clouds,300,2013-11-04 15:30:00
10:00 AM,78.8,71.6,78,29.98,6.2,NW,8.1,-,N/A,,Scattered Clouds,310,2013-11-04 16:00:00
11:00 AM,80.6,71.6,74,29.97,6.2,WNW,4.6,-,N/A,,Scattered Clouds,300,2013-11-04 17:00:00
12:00 PM,82,72,66,29.95,16,WNW,6.9,,,,Partly Cloudy,300,2013-11-04 18:00:00
12:00 PM,82.4,73.4,74,29.95,6.2,WNW,6.9,-,N/A,,Scattered Clouds,300,2013-11-04 18:00:00
1:00 PM,80.6,73.4,79,29.92,6.2,NW,8.1,-,N/A,,Scattered Clouds,310,2013-11-04 19:00:00
2:00 PM,84.2,73.4,70,29.89,6.2,NNW,5.8,-,N/A,,Scattered Clouds,340,2013-11-04 20:00:00
3:00 PM,85,72,57,29.89,12,WNW,5.8,,,,Partly Cloudy,290,2013-11-04 21:00:00
3:00 PM,84.2,71.6,66,2.98,6.2,WNW,5.8,-,N/A,,Scattered Clouds,290,2013-11-04 21:00:00
4:00 PM,84.2,73.4,70,29.88,6.2,East,4.6,-,N/A,,Scattered Clouds,90,2013-11-04 22:00:00
5:00 PM,82.4,75.2,79,29.89,6.2,East,3.5,-,N/A,,Scattered Clouds,100,2013-11-04 23:00:00
6:00 PM,79,75,85,29.90,14,SSE,2.3,,,,Scattered Clouds,160,2013-11-05 00:00:00
6:00 PM,78.8,75.2,89,29.89,6.2,SSE,2.3,-,N/A,,Partly Cloudy,160,2013-11-05 00:00:00
9:00 PM,78,75,89,29.94,14,West,3.5,,,,Scattered Clouds,280,2013-11-05 03:00:00
9:00 PM,78.8,75.2,89,29.92,6.2,West,3.5,-,N/A,,Partly Cloudy,280,2013-11-05 03:00:00
10:00 PM,78.8,75.2,89,29.95,-9999.0,West,2.3,-,N/A,,Clear,260,2013-11-05 04:00:00